sat.trackr.live / text

‹ back to catalog

STARLINK-34397

NORAD 64356 · 2025-126N

PAYLOAD ACTIVE UNKNOWN

§ Identity

Operator
Country
US
Launch date
2025-06-13
Launch site
AFWTR
Launch vehicle
Mass (kg)
RCS (m²)

Purposes: comms

External: N2YO · Heavens-Above · Gunter

§ Orbital elements

Epoch: 2026-05-25T04:01:38.836704Z

Period
96.11 min
Inclination
70.0004°
Eccentricity
0.0003819
Mean motion
14.98337326 rev/d
Perigee alt
569.4 km
Apogee alt
574.7 km
Semi-major
6,950.2 km
B*
3.2072e-4
RAAN
201.7822°
Arg perigee
268.8715°
Mean anomaly
91.2007°
Rev number
5,213

§ Raw data

STARLINK-343971 64356U 25126N   26145.16781061  .00003737  00000+0  32072-3 0  99942 64356  70.0004 201.7822 0003819 268.8715  91.2007 14.98337326 52133

JSON: /api/v1/satellites/64356 · /tle

For live sub-satellite position, see the globe view (requires WebGL).

§ Visibility from observer

Set your observer location to see the next 7 days of passes ≥ 10°. The values pass through the URL so the page stays shareable.

No JS? Fill the form by hand. The geolocation button needs JavaScript.